Weather History for EGBB - January, 2013

Change the Weather History Date:

Tuesday, January 22, 2013

  Actual Average Record
Temperature  
Mean Temperature 28 °F -  
Max Temperature 33 °F 43 °F 51 °F (2012)
Min Temperature 23 °F 32 °F 21 °F (1999)
Degree Days  
Heating Degree Days 37    
Moisture  
Dew Point 29 °F    
Average Humidity 94    
Maximum Humidity 100    
Minimum Humidity 80    
Precipitation  
Precipitation 0.00 in 0.07 in - ()
Sea Level Pressure  
Sea Level Pressure 29.58 in    
Wind  
Wind Speed 6 mph ()    
Max Wind Speed 9 mph    
Max Gust Speed -    
Visibility 3.3 miles    
Events Snow    
Averages and records for this station are not official NWS values.
T = Trace of Precipitation, MM = Missing Value Source: Averaged Metar Reports

Daily Weather History Graph

Daily Weather History Graph

Search for Another Location

Airport or City:

Trip Planner

Search our weather history database for the weather conditions in past years. The results will help you decide how hot, cold, wet, or windy it might be!

Date:

Astronomy

Jan. 22, 2013 Rise Set
Actual Time 8:02 AM GMT 4:35 PM GMT
Civil Twilight 7:24 AM GMT 5:13 PM GMT
Nautical Twilight 6:41 AM GMT 5:55 PM GMT
Astronomical Twilight 6:01 AM GMT 6:36 PM GMT
Moon 12:41 PM GMT (1/22) 4:16 AM GMT (1/22)
Length of Visible Light 9h 49m
Length of Day
8h 32m
Waxing Gibbous, 81% of the Moon is Illuminated
Jan 22
Waxing Gibbous
Jan 27
Full
Feb 3
Last Quarter
Feb 10
New
Feb 17
First Quarter

Hourly Weather History & Observations

Time (GMT) Temp. Windchill Dew Point Humidity Pressure Visibility Wind Dir Wind Speed Gust Speed Precip Events Conditions
12:20 AM 30.2 °F 24.3 °F 30.2 °F 100% 29.44 in - SSE 5.8 mph - N/A   Mist
12:50 AM 30.2 °F 24.3 °F 30.2 °F 100% 29.44 in 1.7 mi SE 5.8 mph - N/A Snow Light Snow
1:20 AM 30.2 °F 23.4 °F 30.2 °F 100% 29.44 in - SSE 6.9 mph - N/A Snow Light Snow
3:20 AM 30.2 °F 24.3 °F 28.4 °F 93% 29.47 in - SE 5.8 mph - N/A   Scattered Clouds
3:50 AM 26.6 °F 19.1 °F 24.8 °F 93% 29.47 in 2.5 mi SE 6.9 mph - N/A   Scattered Clouds
4:20 AM 24.8 °F 17.9 °F 24.8 °F 100% 29.50 in 2.5 mi SSE 5.8 mph - N/A   Scattered Clouds
4:50 AM 28.4 °F 23.3 °F 26.6 °F 93% 29.50 in 2.5 mi SE 4.6 mph - N/A   Mostly Cloudy
5:20 AM 28.4 °F 20.4 °F 26.6 °F 93% 29.50 in 3.7 mi ESE 8.1 mph - N/A   Scattered Clouds
5:50 AM 26.6 °F 19.1 °F 24.8 °F 93% 29.50 in 4.3 mi SE 6.9 mph - N/A   Unknown
6:20 AM 23.0 °F 15.8 °F 21.2 °F 93% 29.50 in 5.0 mi SSE 5.8 mph - N/A   Scattered Clouds
6:50 AM 26.6 °F 21.2 °F 24.8 °F 93% 29.50 in 5.6 mi ESE 4.6 mph - N/A   Partly Cloudy
7:20 AM 26.6 °F - 23.0 °F 86% 29.50 in 6.2 mi Variable 2.3 mph - N/A   Partly Cloudy
8:20 AM 26.6 °F 20.0 °F 23.0 °F 86% 29.53 in 5.6 mi East 5.8 mph - N/A   Unknown
8:50 AM 28.4 °F 23.3 °F 23.0 °F 80% 29.53 in 5.6 mi East 4.6 mph - N/A   Unknown
9:20 AM 28.4 °F 22.2 °F 23.0 °F 80% 29.53 in 5.6 mi East 5.8 mph - N/A   Unknown
9:50 AM 28.4 °F 22.2 °F 24.8 °F 86% 29.56 in - East 5.8 mph - N/A   Clear
10:20 AM 28.4 °F 24.6 °F 24.8 °F 86% 29.56 in - Variable 3.5 mph - N/A   Clear
10:50 AM 28.4 °F 21.2 °F 24.8 °F 86% 29.56 in - NE 6.9 mph - N/A   Clear
11:20 AM 28.4 °F 23.3 °F 24.8 °F 86% 29.59 in 6.2 mi ENE 4.6 mph - N/A   Scattered Clouds
11:50 AM 28.4 °F 21.2 °F 26.6 °F 93% 29.59 in 5.0 mi East 6.9 mph - N/A   Scattered Clouds
12:20 PM 30.2 °F 25.4 °F 28.4 °F 93% 29.59 in 1.1 mi ENE 4.6 mph - N/A   Mostly Cloudy
12:50 PM 30.2 °F 24.3 °F 30.2 °F 100% 29.56 in 1.4 mi NNE 5.8 mph - N/A   Mostly Cloudy
1:20 PM 32.0 °F 26.4 °F 30.2 °F 93% 29.56 in - NNE 5.8 mph - N/A   Mostly Cloudy
1:50 PM 30.2 °F 23.4 °F 28.4 °F 93% 29.59 in 3.1 mi NE 6.9 mph - N/A   Mostly Cloudy
2:20 PM 32.0 °F 24.8 °F 30.2 °F 93% 29.59 in 3.1 mi NE 8.1 mph - N/A   Mostly Cloudy
2:50 PM 32.0 °F 24.2 °F 30.2 °F 93% 29.59 in 3.1 mi NE 9.2 mph - N/A   Mostly Cloudy
3:20 PM 32.0 °F 24.2 °F 30.2 °F 93% 29.59 in 2.5 mi NE 9.2 mph - N/A   Mostly Cloudy
3:50 PM 32.0 °F 24.2 °F 30.2 °F 93% 29.59 in 1.7 mi NE 9.2 mph - N/A   Overcast
4:20 PM 32.0 °F 24.2 °F 30.2 °F 93% 29.62 in 1.2 mi NE 9.2 mph - N/A   Mostly Cloudy
4:50 PM 32.0 °F 25.6 °F 32.0 °F 100% 29.62 in 1.2 mi ENE 6.9 mph - N/A   Mostly Cloudy
5:20 PM 32.0 °F 25.6 °F 32.0 °F 100% 29.62 in 1.7 mi ENE 6.9 mph - N/A   Mostly Cloudy
5:50 PM 32.0 °F 24.8 °F 32.0 °F 100% 29.65 in - ENE 8.1 mph - N/A   Mostly Cloudy
6:20 PM 32.0 °F 24.8 °F 32.0 °F 100% 29.65 in 3.1 mi NE 8.1 mph - N/A   Mostly Cloudy
6:50 PM 32.0 °F 25.6 °F 32.0 °F 100% 29.65 in 3.1 mi NE 6.9 mph - N/A   Scattered Clouds
7:20 PM 32.0 °F 25.6 °F 32.0 °F 100% 29.65 in 3.1 mi NE 6.9 mph - N/A   Scattered Clouds
7:50 PM 32.0 °F 26.4 °F 32.0 °F 100% 29.68 in 3.1 mi NE 5.8 mph - N/A   Mostly Cloudy
8:20 PM 32.0 °F 27.5 °F 32.0 °F 100% 29.68 in 3.1 mi NNE 4.6 mph - N/A   Mostly Cloudy
8:50 PM 33.8 °F 28.6 °F 32.0 °F 93% 29.68 in 3.7 mi NE 5.8 mph - N/A   Mostly Cloudy
9:20 PM 33.8 °F 27.7 °F 32.0 °F 93% 29.71 in 3.7 mi NE 6.9 mph - N/A   Scattered Clouds
9:50 PM 33.8 °F 27.7 °F 32.0 °F 93% 29.71 in 3.7 mi ENE 6.9 mph - N/A Snow Light Snow
10:20 PM 32.0 °F 24.8 °F 32.0 °F 100% 29.71 in 1.7 mi ENE 8.1 mph - N/A Snow Snow
10:50 PM 32.0 °F 24.8 °F 32.0 °F 100% 29.71 in 5.0 mi ENE 8.1 mph - N/A Snow Light Snow
11:20 PM 32.0 °F 25.6 °F 32.0 °F 100% 29.74 in 1.6 mi ENE 6.9 mph - N/A Snow Light Snow
11:50 PM 32.0 °F 26.4 °F 32.0 °F 100% 29.74 in 2.2 mi ENE 5.8 mph - N/A Snow Light Snow